Tupelo, MS

9:11 AM CDT on April 29, 2017 (GMT -0500)
Tupelo Regional

Weather History for KTUP - March, 2013

Change the Weather History Date:

Monday, March 18, 2013

  Actual Average Record
Temperature  
Mean Temperature 60 °F 55 °F  
Max Temperature 72 °F 66 °F 84 °F (1963)
Min Temperature 47 °F 43 °F 23 °F (1978)
Degree Days  
Heating Degree Days 5 11  
Month to date heating degree days 292 235  
Since 1 July heating degree days 2518 2666  
Cooling Degree Days 0 0  
Month to date cooling degree days 1 0  
Year to date cooling degree days 7 2  
Growing Degree Days 10 (Base 50)    
Moisture  
Dew Point 56 °F    
Average Humidity 77    
Maximum Humidity 90    
Minimum Humidity 63    
Precipitation  
Precipitation 0.67 in 0.15 in 1.50 in (1986)
Month to date precipitation 2.04 2.90  
Year to date precipitation 14.47 12.34  
Snow  
Snow 0.00 in 0.00 in 0.00 in ()
Month to date snowfall T 0.2  
Since 1 July snowfall T 2.0  
Snow Depth 0.00 in    
Sea Level Pressure  
Sea Level Pressure 29.81 in    
Wind  
Wind Speed 11 mph (West)    
Max Wind Speed 30 mph    
Max Gust Speed 46 mph    
Visibility 9 miles    
Events Rain , Thunderstorm    
T = Trace of Precipitation, MM = Missing Value Source: NWS Daily Summary

Daily Weather History Graph

Daily Weather History Graph

Search for Another Location

Airport or City:

Trip Planner

Search our weather history database for the weather conditions in past years. The results will help you decide how hot, cold, wet, or windy it might be!

Date:

Astronomy

Mar. 18, 2013 Rise Set
Actual Time 7:01 AM CDT 7:05 PM CDT
Civil Twilight 6:36 AM CDT 7:30 PM CDT
Nautical Twilight 6:07 AM CDT 7:59 PM CDT
Astronomical Twilight 5:37 AM CDT 8:29 PM CDT
Moon 11:15 AM CDT (3/18) 12:50 AM CDT (3/18)
Length of Visible Light 12h 54m
Length of Day
12h 04m
Waxing Crescent, 41% of the Moon is Illuminated
Mar 18
Waxing Crescent
Mar 19
First Quarter
Mar 27
Full
Apr 2
Last Quarter
Apr 10
New

Hourly Weather History & Observations

Time (CDT) Temp. Dew Point Humidity Pressure Visibility Wind Dir Wind Speed Gust Speed Precip Events Conditions
12:53 AM 66.0 °F 57.9 °F 75% 29.78 in 10.0 mi SSW 17.3 mph - N/A   Overcast
1:53 AM 66.0 °F 57.0 °F 73% 29.77 in 10.0 mi SSW 16.1 mph 24.2 mph N/A   Overcast
2:53 AM 64.9 °F 57.0 °F 75% 29.75 in 10.0 mi SSW 16.1 mph 24.2 mph N/A   Scattered Clouds
3:43 AM 64.4 °F 57.2 °F 77% 29.77 in 10.0 mi SW 16.1 mph 24.2 mph N/A   Mostly Cloudy
3:53 AM 64.9 °F 57.9 °F 78% 29.75 in 10.0 mi SSW 16.1 mph 24.2 mph N/A   Overcast
4:53 AM 64.0 °F 59.0 °F 84% 29.75 in 10.0 mi SW 16.1 mph 24.2 mph N/A   Overcast
5:38 AM 64.4 °F 59.0 °F 83% 29.77 in 10.0 mi SW 12.7 mph - N/A   Overcast
5:53 AM 64.0 °F 59.0 °F 84% 29.77 in 10.0 mi SSW 15.0 mph - N/A   Overcast
6:53 AM 63.0 °F 57.9 °F 84% 29.78 in 10.0 mi SSW 12.7 mph - N/A   Overcast
7:17 AM 62.6 °F 57.2 °F 82% 29.78 in 10.0 mi SSW 15.0 mph 21.9 mph N/A   Overcast
7:53 AM 63.0 °F 57.9 °F 84% 29.78 in 10.0 mi SSW 15.0 mph - N/A   Overcast
8:53 AM 63.0 °F 59.0 °F 87% 29.78 in 10.0 mi SSW 12.7 mph - N/A   Overcast
9:07 AM 64.4 °F 59.0 °F 83% 29.78 in 10.0 mi SSW 12.7 mph - N/A Thunderstorm Thunderstorm
9:21 AM 62.6 °F 59.0 °F 88% 29.78 in 8.0 mi SSW 11.5 mph - 0.00 in Rain , Thunderstorm Light Thunderstorms and Rain
9:53 AM 63.0 °F 60.1 °F 90% 29.77 in 5.0 mi SSW 10.4 mph - 0.06 in Rain , Thunderstorm Light Thunderstorms and Rain
10:03 AM 62.6 °F 60.8 °F 94% 29.78 in 6.0 mi South 8.1 mph - 0.01 in Rain , Thunderstorm Light Thunderstorms and Rain
10:27 AM 62.6 °F 60.8 °F 94% 29.79 in 1.5 mi North 10.4 mph 23.0 mph 0.06 in Rain , Thunderstorm Heavy Thunderstorms and Rain
10:35 AM 62.6 °F 60.8 °F 94% 29.78 in 0.8 mi WNW 9.2 mph - 0.37 in Rain , Thunderstorm Light Thunderstorms and Rain
10:39 AM 62.6 °F 60.8 °F 94% 29.79 in 2.0 mi WSW 5.8 mph 17.3 mph 0.37 in Rain , Thunderstorm Light Thunderstorms and Rain
10:46 AM 64.4 °F 60.8 °F 88% 29.79 in 10.0 mi SW 6.9 mph - 0.38 in Thunderstorm Thunderstorm
10:53 AM 64.0 °F 61.0 °F 90% 29.78 in 10.0 mi SW 5.8 mph - 0.38 in Thunderstorm Thunderstorm
11:06 AM 64.4 °F 62.6 °F 94% 29.78 in 9.0 mi Calm Calm - N/A   Overcast
11:16 AM 66.2 °F 62.6 °F 88% 29.79 in 9.0 mi SW 3.5 mph - N/A   Overcast
11:36 AM 64.4 °F 62.6 °F 94% 29.79 in 8.0 mi Variable 3.5 mph - N/A   Overcast
11:48 AM 66.2 °F 62.6 °F 88% 29.79 in 8.0 mi West 9.2 mph - N/A   Overcast
11:53 AM 68.0 °F 64.0 °F 87% 29.78 in 9.0 mi West 9.2 mph - N/A   Overcast
12:02 PM 68.0 °F 64.4 °F 88% 29.78 in 10.0 mi West 12.7 mph - N/A Thunderstorm Thunderstorm
12:39 PM 71.6 °F 64.4 °F 78% 29.77 in 10.0 mi West 15.0 mph 23.0 mph N/A Thunderstorm Thunderstorm
12:49 PM 71.6 °F 64.4 °F 78% 29.77 in 10.0 mi West 13.8 mph 20.7 mph N/A   Overcast
12:53 PM 71.1 °F 63.0 °F 75% 29.76 in 10.0 mi West 15.0 mph 21.9 mph N/A   Mostly Cloudy
1:15 PM 71.6 °F 62.6 °F 73% 29.84 in 10.0 mi NNW 20.7 mph 46.0 mph N/A Thunderstorm Thunderstorm
1:24 PM 57.2 °F 51.8 °F 82% 29.89 in 4.0 mi NW 16.1 mph 46.0 mph 0.00 in Rain , Thunderstorm Thunderstorms and Rain
1:29 PM 55.4 °F 51.8 °F 88% 29.87 in 1.8 mi NNW 16.1 mph 35.7 mph 0.06 in Rain , Thunderstorm Heavy Thunderstorms and Rain
1:36 PM 55.4 °F 53.6 °F 94% 29.89 in 3.0 mi NNW 12.7 mph 26.5 mph 0.13 in Rain , Thunderstorm Thunderstorms and Rain
1:53 PM 57.0 °F 54.0 °F 89% 29.88 in 6.0 mi North 10.4 mph 18.4 mph 0.15 in Rain , Thunderstorm Light Thunderstorms and Rain
2:53 PM 61.0 °F 51.1 °F 70% 29.73 in 10.0 mi Variable 6.9 mph - 0.08 in   Mostly Cloudy
3:12 PM 62.6 °F 51.8 °F 68% 29.71 in 10.0 mi Variable 3.5 mph - N/A Thunderstorm Thunderstorm
3:30 PM 60.8 °F 53.6 °F 77% 29.74 in 10.0 mi North 5.8 mph - N/A   Clear
3:53 PM 63.0 °F 54.0 °F 72% 29.75 in 10.0 mi Calm Calm - N/A   Clear
4:53 PM 66.9 °F 53.1 °F 61% 29.75 in 10.0 mi NW 8.1 mph - N/A   Mostly Cloudy
5:53 PM 64.0 °F 52.0 °F 65% 29.79 in 10.0 mi NNW 10.4 mph - N/A   Scattered Clouds
6:53 PM 60.1 °F 50.0 °F 69% 29.83 in 10.0 mi North 15.0 mph 21.9 mph N/A   Overcast
7:26 PM 55.4 °F 48.2 °F 77% 29.87 in 10.0 mi North 16.1 mph 23.0 mph N/A   Mostly Cloudy
7:53 PM 55.0 °F 48.0 °F 77% 29.88 in 10.0 mi North 12.7 mph 18.4 mph N/A   Overcast
8:53 PM 52.0 °F 45.0 °F 77% 29.92 in 10.0 mi NNE 15.0 mph 23.0 mph N/A   Overcast
9:29 PM 51.8 °F 42.8 °F 71% 29.95 in 10.0 mi NNE 9.2 mph - N/A   Scattered Clouds
9:53 PM 50.0 °F 43.0 °F 77% 29.95 in 10.0 mi NNE 6.9 mph - N/A   Clear
10:53 PM 48.9 °F 43.0 °F 80% 30.00 in 10.0 mi North 4.6 mph - N/A   Clear
11:53 PM 46.9 °F 43.0 °F 86% 30.02 in 10.0 mi North 8.1 mph - N/A   Clear